Year,Month,Day,Hour,Minute,Value (Times are PST for temperature in C)
2019,08,09,00,00,16.40
2019,08,09,00,01,16.40
2019,08,09,00,02,16.30
2019,08,09,00,03,16.30
2019,08,09,00,04,16.30
2019,08,09,00,05,16.30
2019,08,09,00,06,16.20
2019,08,09,00,07,16.20
2019,08,09,00,08,16.20
2019,08,09,00,09,16.20
2019,08,09,00,10,16.20
2019,08,09,00,11,16.20
2019,08,09,00,12,16.20
2019,08,09,00,13,16.20
2019,08,09,00,14,16.20
2019,08,09,00,15,16.20
2019,08,09,00,16,16.30
2019,08,09,00,17,16.30
2019,08,09,00,18,16.30
2019,08,09,00,19,16.30
2019,08,09,00,20,16.30
2019,08,09,00,21,16.30
2019,08,09,00,22,16.30
2019,08,09,00,23,16.30
2019,08,09,00,24,16.20
2019,08,09,00,25,16.20
2019,08,09,00,26,16.20
2019,08,09,00,27,16.20
2019,08,09,00,28,16.20
2019,08,09,00,29,16.20
2019,08,09,00,30,16.10
2019,08,09,00,31,16.10
2019,08,09,00,32,16.10
2019,08,09,00,33,16.10
2019,08,09,00,34,16.10
2019,08,09,00,35,16.10
2019,08,09,00,36,16.10
2019,08,09,00,37,16.10
2019,08,09,00,38,16.10
2019,08,09,00,39,16.10
2019,08,09,00,40,16.10
2019,08,09,00,41,16.10
2019,08,09,00,42,16.10
2019,08,09,00,43,16.20
2019,08,09,00,44,16.20
2019,08,09,00,45,16.20
2019,08,09,00,46,16.20
2019,08,09,00,47,16.20
2019,08,09,00,48,16.20
2019,08,09,00,49,16.20
2019,08,09,00,50,16.20
2019,08,09,00,51,16.20
2019,08,09,00,52,16.20
2019,08,09,00,53,16.20
2019,08,09,00,54,16.20
2019,08,09,00,55,16.20
2019,08,09,00,56,16.20
2019,08,09,00,57,16.20
2019,08,09,00,58,16.10
2019,08,09,00,59,16.10
2019,08,09,01,00,16.10
2019,08,09,01,01,16.10
2019,08,09,01,02,16.10
2019,08,09,01,03,16.10
2019,08,09,01,04,16.10
2019,08,09,01,05,16.00
2019,08,09,01,06,16.00
2019,08,09,01,07,16.00
2019,08,09,01,08,16.00
2019,08,09,01,09,16.00
2019,08,09,01,10,15.90
2019,08,09,01,11,15.90
2019,08,09,01,12,15.90
2019,08,09,01,13,15.90
2019,08,09,01,14,15.90
2019,08,09,01,15,15.90
2019,08,09,01,16,15.80
2019,08,09,01,17,15.80
2019,08,09,01,18,15.80
2019,08,09,01,19,15.80
2019,08,09,01,20,15.80
2019,08,09,01,21,15.80
2019,08,09,01,22,15.70
2019,08,09,01,23,15.70
2019,08,09,01,24,15.70
2019,08,09,01,25,15.70
2019,08,09,01,26,15.70
2019,08,09,01,27,15.70
2019,08,09,01,28,15.70
2019,08,09,01,29,15.70
2019,08,09,01,30,15.70
2019,08,09,01,31,15.60
2019,08,09,01,32,15.60
2019,08,09,01,33,15.60
2019,08,09,01,34,15.60
2019,08,09,01,35,15.60
2019,08,09,01,36,15.60
2019,08,09,01,37,15.60
2019,08,09,01,38,15.60
2019,08,09,01,39,15.60
2019,08,09,01,40,15.60
2019,08,09,01,41,15.60
2019,08,09,01,42,15.60
2019,08,09,01,43,15.60
2019,08,09,01,44,15.60
2019,08,09,01,45,15.60
2019,08,09,01,46,15.50
2019,08,09,01,47,15.50
2019,08,09,01,48,15.50
2019,08,09,01,49,15.50
2019,08,09,01,50,15.50
2019,08,09,01,51,15.50
2019,08,09,01,52,15.40
2019,08,09,01,53,15.40
2019,08,09,01,54,15.40
2019,08,09,01,55,15.40
2019,08,09,01,56,15.40
2019,08,09,01,57,15.40
2019,08,09,01,58,15.40
2019,08,09,01,59,15.40
2019,08,09,02,00,15.40
2019,08,09,02,01,15.40
2019,08,09,02,02,15.30
2019,08,09,02,03,15.30
2019,08,09,02,04,15.30
2019,08,09,02,05,15.30
2019,08,09,02,06,15.30
2019,08,09,02,07,15.30
2019,08,09,02,08,15.30
2019,08,09,02,09,15.20
2019,08,09,02,10,15.20
2019,08,09,02,11,15.20
2019,08,09,02,12,15.20
2019,08,09,02,13,15.20
2019,08,09,02,14,15.10
2019,08,09,02,15,15.10
2019,08,09,02,16,15.10
2019,08,09,02,17,15.10
2019,08,09,02,18,15.10
2019,08,09,02,19,15.10
2019,08,09,02,20,15.10
2019,08,09,02,21,15.00
2019,08,09,02,22,15.00
2019,08,09,02,23,15.00
2019,08,09,02,24,15.00
2019,08,09,02,25,15.00
2019,08,09,02,26,14.90
2019,08,09,02,27,14.90
2019,08,09,02,28,14.90
2019,08,09,02,29,14.90
2019,08,09,02,30,14.90
2019,08,09,02,31,14.80
2019,08,09,02,32,14.80
2019,08,09,02,33,14.80
2019,08,09,02,34,14.80
2019,08,09,02,35,14.80
2019,08,09,02,36,14.80
2019,08,09,02,37,14.70
2019,08,09,02,38,14.70
2019,08,09,02,39,14.70
2019,08,09,02,40,14.70
2019,08,09,02,41,14.70
2019,08,09,02,42,14.70
2019,08,09,02,43,14.60
2019,08,09,02,44,14.60
2019,08,09,02,45,14.70
2019,08,09,02,46,14.70
2019,08,09,02,47,14.70
2019,08,09,02,48,14.80
2019,08,09,02,49,14.80
2019,08,09,02,50,14.80
2019,08,09,02,51,14.80
2019,08,09,02,52,14.90
2019,08,09,02,53,14.90
2019,08,09,02,54,15.00
2019,08,09,02,55,15.00
2019,08,09,02,56,15.00
2019,08,09,02,57,15.10
2019,08,09,02,58,15.10
2019,08,09,02,59,15.20
2019,08,09,03,00,15.20
2019,08,09,03,01,15.30
2019,08,09,03,02,15.30
2019,08,09,03,03,15.30
2019,08,09,03,04,15.40
2019,08,09,03,05,15.40
2019,08,09,03,06,15.50
2019,08,09,03,07,15.50
2019,08,09,03,08,15.60
2019,08,09,03,09,15.60
2019,08,09,03,10,15.70
2019,08,09,03,11,15.70
2019,08,09,03,12,15.70
2019,08,09,03,13,15.70
2019,08,09,03,14,15.70
2019,08,09,03,15,15.70
2019,08,09,03,16,15.70
2019,08,09,03,17,15.70
2019,08,09,03,18,15.80
2019,08,09,03,19,15.70
2019,08,09,03,20,15.70
2019,08,09,03,21,15.80
2019,08,09,03,22,15.80
2019,08,09,03,23,15.80
2019,08,09,03,24,15.80
2019,08,09,03,25,15.80
2019,08,09,03,26,15.80
2019,08,09,03,27,15.90
2019,08,09,03,28,15.90
2019,08,09,03,29,15.90
2019,08,09,03,30,15.90
2019,08,09,03,31,15.90
2019,08,09,03,32,15.90
2019,08,09,03,33,16.00
2019,08,09,03,34,16.00
2019,08,09,03,35,16.00
2019,08,09,03,36,16.10
2019,08,09,03,37,16.10
2019,08,09,03,38,16.10
2019,08,09,03,39,16.10
2019,08,09,03,40,16.10
2019,08,09,03,41,16.10
2019,08,09,03,42,16.10
2019,08,09,03,43,16.10
2019,08,09,03,44,16.10
2019,08,09,03,45,16.10
2019,08,09,03,46,16.10
2019,08,09,03,47,16.20
2019,08,09,03,48,16.20
2019,08,09,03,49,16.20
2019,08,09,03,50,16.20
2019,08,09,03,51,16.20
2019,08,09,03,52,16.20
2019,08,09,03,53,16.20
2019,08,09,03,54,16.20
2019,08,09,03,55,16.20
2019,08,09,03,56,16.20
2019,08,09,03,57,16.30
2019,08,09,03,58,16.30
2019,08,09,03,59,16.30
2019,08,09,04,00,16.30
2019,08,09,04,01,16.30
2019,08,09,04,02,16.30
2019,08,09,04,03,16.30
2019,08,09,04,04,16.30
2019,08,09,04,05,16.30
2019,08,09,04,06,16.30
2019,08,09,04,07,16.30
2019,08,09,04,08,16.30
2019,08,09,04,09,16.30
2019,08,09,04,10,16.40
2019,08,09,04,11,16.40
2019,08,09,04,12,16.40
2019,08,09,04,13,16.40
2019,08,09,04,14,16.40
2019,08,09,04,15,16.40
2019,08,09,04,16,16.40
2019,08,09,04,17,16.40
2019,08,09,04,18,16.40
2019,08,09,04,19,16.40
2019,08,09,04,20,16.40
2019,08,09,04,21,16.40
2019,08,09,04,22,16.40
2019,08,09,04,23,16.40
2019,08,09,04,24,16.40
2019,08,09,04,25,16.40
2019,08,09,04,26,16.40
2019,08,09,04,27,16.50
2019,08,09,04,28,16.50
2019,08,09,04,29,16.40
2019,08,09,04,30,16.50
2019,08,09,04,31,16.50
2019,08,09,04,32,16.50
2019,08,09,04,33,16.50
2019,08,09,04,34,16.50
2019,08,09,04,35,16.50
2019,08,09,04,36,16.50
2019,08,09,04,37,16.50
2019,08,09,04,38,16.50
2019,08,09,04,39,16.50
2019,08,09,04,40,16.60
2019,08,09,04,41,16.60
2019,08,09,04,42,16.60
2019,08,09,04,43,16.60
2019,08,09,04,44,16.60
2019,08,09,04,45,16.60
2019,08,09,04,46,16.60
2019,08,09,04,47,16.70
2019,08,09,04,48,16.70
2019,08,09,04,49,16.70
2019,08,09,04,50,16.70
2019,08,09,04,51,16.70
2019,08,09,04,52,16.70
2019,08,09,04,53,16.70
2019,08,09,04,54,16.70
2019,08,09,04,55,16.70
2019,08,09,04,56,16.70
2019,08,09,04,57,16.70
2019,08,09,04,58,16.70
2019,08,09,04,59,16.70
2019,08,09,05,00,16.70
2019,08,09,05,01,16.70
2019,08,09,05,02,16.70
2019,08,09,05,03,16.70
2019,08,09,05,04,16.70
2019,08,09,05,05,16.70
2019,08,09,05,06,16.70
2019,08,09,05,07,16.70
2019,08,09,05,08,16.70
2019,08,09,05,09,16.70
2019,08,09,05,10,16.70
2019,08,09,05,11,16.70
2019,08,09,05,12,16.70
2019,08,09,05,13,16.70
2019,08,09,05,14,16.80
2019,08,09,05,15,16.80
2019,08,09,05,16,16.80
2019,08,09,05,17,16.80
2019,08,09,05,18,16.80
2019,08,09,05,19,16.80
2019,08,09,05,20,16.80
2019,08,09,05,21,16.80
2019,08,09,05,22,16.80
2019,08,09,05,23,16.80
2019,08,09,05,24,16.80
2019,08,09,05,25,16.80
2019,08,09,05,26,16.80
2019,08,09,05,27,16.80
2019,08,09,05,28,16.80
2019,08,09,05,29,16.80
2019,08,09,05,30,16.80
2019,08,09,05,31,16.80
2019,08,09,05,32,16.90
2019,08,09,05,33,16.90
2019,08,09,05,34,16.90
2019,08,09,05,35,16.90
2019,08,09,05,36,16.90
2019,08,09,05,37,16.90
2019,08,09,05,38,16.90
2019,08,09,05,39,16.90
2019,08,09,05,40,16.90
2019,08,09,05,41,16.90
2019,08,09,05,42,16.90
2019,08,09,05,43,16.90
2019,08,09,05,44,16.90
2019,08,09,05,45,16.90
2019,08,09,05,46,16.90
2019,08,09,05,47,16.90
2019,08,09,05,48,16.90
2019,08,09,05,49,16.90
2019,08,09,05,50,16.90
2019,08,09,05,51,16.90
2019,08,09,05,52,16.90
2019,08,09,05,53,16.90
2019,08,09,05,54,16.90
2019,08,09,05,55,16.90
2019,08,09,05,56,16.90
2019,08,09,05,57,16.90
2019,08,09,05,58,16.90
2019,08,09,05,59,16.90
2019,08,09,06,00,16.90
2019,08,09,06,01,16.90
2019,08,09,06,02,17.00
2019,08,09,06,03,16.90
2019,08,09,06,04,16.90
2019,08,09,06,05,16.90
2019,08,09,06,06,17.00
2019,08,09,06,07,17.00
2019,08,09,06,08,17.00
2019,08,09,06,09,17.00
2019,08,09,06,10,17.00
2019,08,09,06,11,17.00
2019,08,09,06,12,17.00
2019,08,09,06,13,17.10
2019,08,09,06,14,17.10
2019,08,09,06,15,17.10
2019,08,09,06,16,17.10
2019,08,09,06,17,17.10
2019,08,09,06,18,17.10
2019,08,09,06,19,17.10
2019,08,09,06,20,17.10
2019,08,09,06,21,17.20
2019,08,09,06,22,17.20
2019,08,09,06,23,17.20
2019,08,09,06,24,17.20
2019,08,09,06,25,17.20
2019,08,09,06,26,17.20
2019,08,09,06,27,17.20
2019,08,09,06,28,17.20
2019,08,09,06,29,17.20
2019,08,09,06,30,17.20
2019,08,09,06,31,17.20
2019,08,09,06,32,17.20
2019,08,09,06,33,17.20
2019,08,09,06,34,17.20
2019,08,09,06,35,17.20
2019,08,09,06,36,17.20
2019,08,09,06,37,17.20
2019,08,09,06,38,17.30
2019,08,09,06,39,17.20
2019,08,09,06,40,17.30
2019,08,09,06,41,17.30
2019,08,09,06,42,17.30
2019,08,09,06,43,17.30
2019,08,09,06,44,17.30
2019,08,09,06,45,17.30
2019,08,09,06,46,17.30
2019,08,09,06,47,17.30
2019,08,09,06,48,17.30
2019,08,09,06,49,17.30
2019,08,09,06,50,17.30
2019,08,09,06,51,17.30
2019,08,09,06,52,17.30
2019,08,09,06,53,17.40
2019,08,09,06,54,17.30
2019,08,09,06,55,17.40
2019,08,09,06,56,17.40
2019,08,09,06,57,17.40
2019,08,09,06,58,17.40
2019,08,09,06,59,17.40
2019,08,09,07,00,17.40
2019,08,09,07,01,17.40
2019,08,09,07,02,17.40
2019,08,09,07,03,17.40
2019,08,09,07,04,17.50
2019,08,09,07,05,17.50
2019,08,09,07,06,17.50
2019,08,09,07,07,17.50
2019,08,09,07,08,17.50
2019,08,09,07,09,17.50
2019,08,09,07,10,17.50
2019,08,09,07,11,17.50
2019,08,09,07,12,17.50
2019,08,09,07,13,17.50
2019,08,09,07,14,17.50
2019,08,09,07,15,17.50
2019,08,09,07,16,17.50
2019,08,09,07,17,17.50
2019,08,09,07,18,17.50
2019,08,09,07,19,17.50
2019,08,09,07,20,17.50
2019,08,09,07,21,17.50
2019,08,09,07,22,17.50
2019,08,09,07,23,17.50
2019,08,09,07,24,17.50
2019,08,09,07,25,17.50
2019,08,09,07,26,17.50
2019,08,09,07,27,17.50
2019,08,09,07,28,17.50
2019,08,09,07,29,17.50
2019,08,09,07,30,17.50
2019,08,09,07,31,17.50
2019,08,09,07,32,17.50
2019,08,09,07,33,17.50
2019,08,09,07,34,17.50
2019,08,09,07,35,17.50
2019,08,09,07,36,17.50
2019,08,09,07,37,17.50
2019,08,09,07,38,17.50
2019,08,09,07,39,17.50
2019,08,09,07,40,17.50
2019,08,09,07,41,17.60
2019,08,09,07,42,17.60
2019,08,09,07,43,17.60
2019,08,09,07,44,17.60
2019,08,09,07,45,17.60
2019,08,09,07,46,17.60
2019,08,09,07,47,17.60
2019,08,09,07,48,17.60
2019,08,09,07,49,17.60
2019,08,09,07,50,17.70
2019,08,09,07,51,17.70
2019,08,09,07,52,17.70
2019,08,09,07,53,17.70
2019,08,09,07,54,17.70
2019,08,09,07,55,17.70
2019,08,09,07,56,17.80
2019,08,09,07,57,17.70
2019,08,09,07,58,17.80
2019,08,09,07,59,17.80
2019,08,09,08,00,17.80
2019,08,09,08,01,17.80
2019,08,09,08,02,17.80
2019,08,09,08,03,17.80
2019,08,09,08,04,17.80
2019,08,09,08,05,17.80
2019,08,09,08,06,17.80
2019,08,09,08,07,17.80
2019,08,09,08,08,17.80
2019,08,09,08,09,17.80
2019,08,09,08,10,17.80
2019,08,09,08,11,17.80
2019,08,09,08,12,17.80
2019,08,09,08,13,17.80
2019,08,09,08,14,17.90
2019,08,09,08,15,17.90
2019,08,09,08,16,17.90
2019,08,09,08,17,17.90
2019,08,09,08,18,18.00
2019,08,09,08,19,18.00
2019,08,09,08,20,18.00
2019,08,09,08,21,18.00
2019,08,09,08,22,18.00
2019,08,09,08,23,18.00
2019,08,09,08,24,18.00
2019,08,09,08,25,18.00
2019,08,09,08,26,18.00
2019,08,09,08,27,18.00
2019,08,09,08,28,18.10
2019,08,09,08,29,18.10
2019,08,09,08,30,18.10
2019,08,09,08,31,18.10
2019,08,09,08,32,18.10
2019,08,09,08,33,18.10
2019,08,09,08,34,18.20
2019,08,09,08,35,18.20
2019,08,09,08,36,18.20
2019,08,09,08,37,18.20
2019,08,09,08,38,18.20
2019,08,09,08,39,18.20
2019,08,09,08,40,18.20
2019,08,09,08,41,18.20
2019,08,09,08,42,18.20
2019,08,09,08,43,18.30
2019,08,09,08,44,18.30
2019,08,09,08,45,18.30
2019,08,09,08,46,18.30
2019,08,09,08,47,18.30
2019,08,09,08,48,18.30
2019,08,09,08,49,18.30
2019,08,09,08,50,18.20
2019,08,09,08,51,18.20
2019,08,09,08,52,18.20
2019,08,09,08,53,18.20
2019,08,09,08,54,18.20
2019,08,09,08,55,18.20
2019,08,09,08,56,18.20
2019,08,09,08,57,18.20
2019,08,09,08,58,18.20
2019,08,09,08,59,18.20
2019,08,09,09,00,18.20
2019,08,09,09,01,18.20
2019,08,09,09,02,18.20
2019,08,09,09,03,18.30
2019,08,09,09,04,18.30
2019,08,09,09,05,18.30
2019,08,09,09,06,18.30
2019,08,09,09,07,18.30
2019,08,09,09,08,18.30
2019,08,09,09,09,18.30
2019,08,09,09,10,18.30
2019,08,09,09,11,18.30
2019,08,09,09,12,18.30
2019,08,09,09,13,18.30
2019,08,09,09,14,18.30
2019,08,09,09,15,18.30
2019,08,09,09,16,18.30
2019,08,09,09,17,18.30
2019,08,09,09,18,18.30
2019,08,09,09,19,18.30
2019,08,09,09,20,18.30
2019,08,09,09,21,18.30
2019,08,09,09,22,18.30
2019,08,09,09,23,18.30
2019,08,09,09,24,18.30
2019,08,09,09,25,18.30
2019,08,09,09,26,18.30
2019,08,09,09,27,18.30
2019,08,09,09,28,18.40
2019,08,09,09,29,18.40
2019,08,09,09,30,18.40
2019,08,09,09,31,18.50
2019,08,09,09,32,18.50
2019,08,09,09,33,18.50
2019,08,09,09,34,18.40
2019,08,09,09,35,18.40
2019,08,09,09,36,18.40
2019,08,09,09,37,18.40
2019,08,09,09,38,18.40
2019,08,09,09,39,18.40
2019,08,09,09,40,18.30
2019,08,09,09,41,18.30
2019,08,09,09,42,18.30
2019,08,09,09,43,18.30
2019,08,09,09,44,18.30
2019,08,09,09,45,18.30
2019,08,09,09,46,18.30
2019,08,09,09,47,18.20
2019,08,09,09,48,18.20
2019,08,09,09,49,18.20
2019,08,09,09,50,18.20
2019,08,09,09,51,18.20
2019,08,09,09,52,18.20
2019,08,09,09,53,18.20
2019,08,09,09,54,18.10
2019,08,09,09,55,18.10
2019,08,09,09,56,18.10
2019,08,09,09,57,18.10
2019,08,09,09,58,18.10
2019,08,09,09,59,18.10
2019,08,09,10,00,18.10
2019,08,09,10,01,18.10
2019,08,09,10,02,18.00
2019,08,09,10,03,18.00
2019,08,09,10,04,18.10
2019,08,09,10,05,18.10
2019,08,09,10,06,18.10
2019,08,09,10,07,18.10
2019,08,09,10,08,18.10
2019,08,09,10,09,18.10
2019,08,09,10,10,18.10
2019,08,09,10,11,18.10
2019,08,09,10,12,18.10
2019,08,09,10,13,18.10
2019,08,09,10,14,18.10
2019,08,09,10,15,18.10
2019,08,09,10,16,18.10
2019,08,09,10,17,18.10
2019,08,09,10,18,18.10
2019,08,09,10,19,18.10
2019,08,09,10,20,18.20
2019,08,09,10,21,18.20
2019,08,09,10,22,18.20
2019,08,09,10,23,18.30
2019,08,09,10,24,18.30
2019,08,09,10,25,18.30
2019,08,09,10,26,18.30
2019,08,09,10,27,18.30
2019,08,09,10,28,18.30
2019,08,09,10,29,18.30
2019,08,09,10,30,18.20
2019,08,09,10,31,18.20
2019,08,09,10,32,18.20
2019,08,09,10,33,18.20
2019,08,09,10,34,18.20
2019,08,09,10,35,18.20
2019,08,09,10,36,18.20
2019,08,09,10,37,18.20
2019,08,09,10,38,18.20
2019,08,09,10,39,18.20
2019,08,09,10,40,18.20
2019,08,09,10,41,18.20
2019,08,09,10,42,18.30
2019,08,09,10,43,18.30
2019,08,09,10,44,18.30
2019,08,09,10,45,18.30
2019,08,09,10,46,18.30
2019,08,09,10,47,18.30
2019,08,09,10,48,18.30
2019,08,09,10,49,18.40
2019,08,09,10,50,18.40
2019,08,09,10,51,18.40
2019,08,09,10,52,18.40
2019,08,09,10,53,18.40
2019,08,09,10,54,18.40
2019,08,09,10,55,18.40
2019,08,09,10,56,18.40
2019,08,09,10,57,18.40
2019,08,09,10,58,18.40
2019,08,09,10,59,18.40
2019,08,09,11,00,18.40
2019,08,09,11,01,18.40
2019,08,09,11,02,18.40
2019,08,09,11,03,18.40
2019,08,09,11,04,18.40
2019,08,09,11,05,18.40
2019,08,09,11,06,18.40
2019,08,09,11,07,18.50
2019,08,09,11,08,18.40
2019,08,09,11,09,18.50
2019,08,09,11,10,18.40
2019,08,09,11,11,18.40
2019,08,09,11,12,18.40
2019,08,09,11,13,18.40
2019,08,09,11,14,18.40
2019,08,09,11,15,18.40
2019,08,09,11,16,18.40
2019,08,09,11,17,18.30
2019,08,09,11,18,18.30
2019,08,09,11,19,18.30
2019,08,09,11,20,18.20
2019,08,09,11,21,18.20
2019,08,09,11,22,18.20
2019,08,09,11,23,18.10
2019,08,09,11,24,18.10
2019,08,09,11,25,18.20
2019,08,09,11,26,18.20
2019,08,09,11,27,18.20
2019,08,09,11,28,18.20
2019,08,09,11,29,18.20
2019,08,09,11,30,18.20
2019,08,09,11,31,18.30
2019,08,09,11,32,18.30
2019,08,09,11,33,18.30
2019,08,09,11,34,18.30
2019,08,09,11,35,18.30
2019,08,09,11,36,18.30
2019,08,09,11,37,18.30
2019,08,09,11,38,18.30
2019,08,09,11,39,18.30
2019,08,09,11,40,18.40
2019,08,09,11,41,18.40
2019,08,09,11,42,18.50
2019,08,09,11,43,18.50
2019,08,09,11,44,18.50
2019,08,09,11,45,18.60
2019,08,09,11,46,18.60
2019,08,09,11,47,18.60
2019,08,09,11,48,18.60
2019,08,09,11,49,18.70
2019,08,09,11,50,18.70
2019,08,09,11,51,18.70
2019,08,09,11,52,18.70
2019,08,09,11,53,18.70
2019,08,09,11,54,18.70
2019,08,09,11,55,18.70
2019,08,09,11,56,18.70
2019,08,09,11,57,18.70
2019,08,09,11,58,18.80
2019,08,09,11,59,18.80
2019,08,09,12,00,18.80
2019,08,09,12,01,18.80
2019,08,09,12,02,18.90
2019,08,09,12,03,18.90
2019,08,09,12,04,19.00
2019,08,09,12,05,19.10
2019,08,09,12,06,19.20
2019,08,09,12,07,19.20
2019,08,09,12,08,19.20
2019,08,09,12,09,19.20
2019,08,09,12,10,19.20
2019,08,09,12,11,19.30
2019,08,09,12,12,19.30
2019,08,09,12,13,19.40
2019,08,09,12,14,19.50
2019,08,09,12,15,19.60
2019,08,09,12,16,19.60
2019,08,09,12,17,19.70
2019,08,09,12,18,19.70
2019,08,09,12,19,19.80
2019,08,09,12,20,19.80
2019,08,09,12,21,19.80
2019,08,09,12,22,19.90
2019,08,09,12,23,19.90
2019,08,09,12,24,19.80
2019,08,09,12,25,19.80
2019,08,09,12,26,19.70
2019,08,09,12,27,19.70
2019,08,09,12,28,19.70
2019,08,09,12,29,19.80
2019,08,09,12,30,19.70
2019,08,09,12,31,19.70
2019,08,09,12,32,19.70
2019,08,09,12,33,19.70
2019,08,09,12,34,19.70
2019,08,09,12,35,19.70
2019,08,09,12,36,19.70
2019,08,09,12,37,19.70
2019,08,09,12,38,19.70
2019,08,09,12,39,19.70
2019,08,09,12,40,19.80
2019,08,09,12,41,19.80
2019,08,09,12,42,19.70
2019,08,09,12,43,19.80
2019,08,09,12,44,19.70
2019,08,09,12,45,19.70
2019,08,09,12,46,19.70
2019,08,09,12,47,19.70
2019,08,09,12,48,19.80
2019,08,09,12,49,19.90
2019,08,09,12,50,19.80
2019,08,09,12,51,19.80
2019,08,09,12,52,19.80
2019,08,09,12,53,19.90
2019,08,09,12,54,19.90
2019,08,09,12,55,19.90
2019,08,09,12,56,19.90
2019,08,09,12,57,20.00
2019,08,09,12,58,20.00
2019,08,09,12,59,20.10
2019,08,09,13,00,20.10
2019,08,09,13,01,20.10
2019,08,09,13,02,20.10
2019,08,09,13,03,20.10
2019,08,09,13,04,20.10
2019,08,09,13,05,20.20
2019,08,09,13,06,20.30
2019,08,09,13,07,20.30
2019,08,09,13,08,20.30
2019,08,09,13,09,20.30
2019,08,09,13,10,20.30
2019,08,09,13,11,20.20
2019,08,09,13,12,20.10
2019,08,09,13,13,20.10
2019,08,09,13,14,20.10
2019,08,09,13,15,20.10
2019,08,09,13,16,20.10
2019,08,09,13,17,20.10
2019,08,09,13,18,20.10
2019,08,09,13,19,20.10
2019,08,09,13,20,20.20
2019,08,09,13,21,20.20
2019,08,09,13,22,20.30
2019,08,09,13,23,20.30
2019,08,09,13,24,20.40
2019,08,09,13,25,20.40
2019,08,09,13,26,20.50
2019,08,09,13,27,20.50
2019,08,09,13,28,20.50
2019,08,09,13,29,20.50
2019,08,09,13,30,20.40
2019,08,09,13,31,20.30
2019,08,09,13,32,20.40
2019,08,09,13,33,20.30
2019,08,09,13,34,20.40
2019,08,09,13,35,20.40
2019,08,09,13,36,20.40
2019,08,09,13,37,20.40
2019,08,09,13,38,20.40
2019,08,09,13,39,20.40
2019,08,09,13,40,20.40
2019,08,09,13,41,20.40
2019,08,09,13,42,20.40
2019,08,09,13,43,20.40
2019,08,09,13,44,20.40
2019,08,09,13,45,20.40
2019,08,09,13,46,20.40
2019,08,09,13,47,20.40
2019,08,09,13,48,20.40
2019,08,09,13,49,20.40
2019,08,09,13,50,20.50
2019,08,09,13,51,20.40
2019,08,09,13,52,20.40
2019,08,09,13,53,20.50
2019,08,09,13,54,20.50
2019,08,09,13,55,20.40
2019,08,09,13,56,20.40
2019,08,09,13,57,20.40
2019,08,09,13,58,20.40
2019,08,09,13,59,20.30
2019,08,09,14,00,20.30
2019,08,09,14,01,20.30
2019,08,09,14,02,20.30
2019,08,09,14,03,20.30
2019,08,09,14,04,20.30
2019,08,09,14,05,20.30
2019,08,09,14,06,20.30
2019,08,09,14,07,20.30
2019,08,09,14,08,20.40
2019,08,09,14,09,20.40
2019,08,09,14,10,20.50
2019,08,09,14,11,20.60
2019,08,09,14,12,20.60
2019,08,09,14,13,20.70
2019,08,09,14,14,20.70
2019,08,09,14,15,20.80
2019,08,09,14,16,20.80
2019,08,09,14,17,20.80
2019,08,09,14,18,20.80
2019,08,09,14,19,20.80
2019,08,09,14,20,20.80
2019,08,09,14,21,20.80
2019,08,09,14,22,20.70
2019,08,09,14,23,20.60
2019,08,09,14,24,20.50
2019,08,09,14,25,20.40
2019,08,09,14,26,20.30
2019,08,09,14,27,20.30
2019,08,09,14,28,20.40
2019,08,09,14,29,20.50
2019,08,09,14,30,20.50
2019,08,09,14,31,20.50
2019,08,09,14,32,20.50
2019,08,09,14,33,20.60
2019,08,09,14,34,20.60
2019,08,09,14,35,20.60
2019,08,09,14,36,20.60
2019,08,09,14,37,20.60
2019,08,09,14,38,20.70
2019,08,09,14,39,20.70
2019,08,09,14,40,20.80
2019,08,09,14,41,20.80
2019,08,09,14,42,20.80
2019,08,09,14,43,20.90
2019,08,09,14,44,20.90
2019,08,09,14,45,20.90
2019,08,09,14,46,20.90
2019,08,09,14,47,20.80
2019,08,09,14,48,20.70
2019,08,09,14,49,20.60
2019,08,09,14,50,20.60
2019,08,09,14,51,20.60
2019,08,09,14,52,20.60
2019,08,09,14,53,20.70
2019,08,09,14,54,20.70
2019,08,09,14,55,20.70
2019,08,09,14,56,20.70
2019,08,09,14,57,20.70
2019,08,09,14,58,20.70
2019,08,09,14,59,20.70
2019,08,09,15,00,20.70
2019,08,09,15,01,20.80
2019,08,09,15,02,20.80
2019,08,09,15,03,20.80
2019,08,09,15,04,20.90
2019,08,09,15,05,20.80
2019,08,09,15,06,20.80
2019,08,09,15,07,20.80
2019,08,09,15,08,20.90
2019,08,09,15,09,20.90
2019,08,09,15,10,20.90
2019,08,09,15,11,20.90
2019,08,09,15,12,21.00
2019,08,09,15,13,21.00
2019,08,09,15,14,21.00
2019,08,09,15,15,21.00
2019,08,09,15,16,21.10
2019,08,09,15,17,21.10
2019,08,09,15,18,21.10
2019,08,09,15,19,21.20
2019,08,09,15,20,21.20
2019,08,09,15,21,21.30
2019,08,09,15,22,21.30
2019,08,09,15,23,21.40
2019,08,09,15,24,21.40
2019,08,09,15,25,21.40
2019,08,09,15,26,21.50
2019,08,09,15,27,21.50
2019,08,09,15,28,21.50
2019,08,09,15,29,21.50
2019,08,09,15,30,21.50
2019,08,09,15,31,21.50
2019,08,09,15,32,21.60
2019,08,09,15,33,21.60
2019,08,09,15,34,21.60
2019,08,09,15,35,21.60
2019,08,09,15,36,21.60
2019,08,09,15,37,21.60
2019,08,09,15,38,21.50
2019,08,09,15,39,21.50
2019,08,09,15,40,21.50
2019,08,09,15,41,21.50
2019,08,09,15,42,21.40
2019,08,09,15,43,21.30
2019,08,09,15,44,21.30
2019,08,09,15,45,21.20
2019,08,09,15,46,21.10
2019,08,09,15,47,21.00
2019,08,09,15,48,20.90
2019,08,09,15,49,20.80
2019,08,09,15,50,20.90
2019,08,09,15,51,20.90
2019,08,09,15,52,20.90
2019,08,09,15,53,20.90
2019,08,09,15,54,20.90
2019,08,09,15,55,20.90
2019,08,09,15,56,20.90
2019,08,09,15,57,20.90
2019,08,09,15,58,20.90
2019,08,09,15,59,20.90
2019,08,09,16,00,21.00
2019,08,09,16,01,21.00
2019,08,09,16,02,20.90
2019,08,09,16,03,20.90
2019,08,09,16,04,20.90
2019,08,09,16,05,20.90
2019,08,09,16,06,20.90
2019,08,09,16,07,20.90
2019,08,09,16,08,20.90
2019,08,09,16,09,21.00
2019,08,09,16,10,20.90
2019,08,09,16,11,20.90
2019,08,09,16,12,21.00
2019,08,09,16,13,21.00
2019,08,09,16,14,21.00
2019,08,09,16,15,21.00
2019,08,09,16,16,21.10
2019,08,09,16,17,21.10
2019,08,09,16,18,21.10
2019,08,09,16,19,21.20
2019,08,09,16,20,21.20
2019,08,09,16,21,21.20
2019,08,09,16,22,21.20
2019,08,09,16,23,21.10
2019,08,09,16,24,21.10
2019,08,09,16,25,21.10
2019,08,09,16,26,21.10
2019,08,09,16,27,21.10
2019,08,09,16,28,21.20
2019,08,09,16,29,21.20
2019,08,09,16,30,21.30
2019,08,09,16,31,21.30
2019,08,09,16,32,21.30
2019,08,09,16,33,21.30
2019,08,09,16,34,21.40
2019,08,09,16,35,21.40
2019,08,09,16,36,21.40
2019,08,09,16,37,21.30
2019,08,09,16,38,21.30
2019,08,09,16,39,21.30
2019,08,09,16,40,21.40
2019,08,09,16,41,21.40
2019,08,09,16,42,21.40
2019,08,09,16,43,21.40
2019,08,09,16,44,21.40
2019,08,09,16,45,21.40
2019,08,09,16,46,21.40
2019,08,09,16,47,21.40
2019,08,09,16,48,21.40
2019,08,09,16,49,21.40
2019,08,09,16,50,21.40
2019,08,09,16,51,21.40
2019,08,09,16,52,21.40
2019,08,09,16,53,21.40
2019,08,09,16,54,21.40
2019,08,09,16,55,21.40
2019,08,09,16,56,21.30
2019,08,09,16,57,21.30
2019,08,09,16,58,21.30
2019,08,09,16,59,21.30
2019,08,09,17,00,21.30
2019,08,09,17,01,21.30
2019,08,09,17,02,21.30
2019,08,09,17,03,21.30
2019,08,09,17,04,21.30
2019,08,09,17,05,21.30
2019,08,09,17,06,21.30
2019,08,09,17,07,21.30
2019,08,09,17,08,21.30
2019,08,09,17,09,21.30
2019,08,09,17,10,21.30
2019,08,09,17,11,21.20
2019,08,09,17,12,21.20
2019,08,09,17,13,21.20
2019,08,09,17,14,21.20
2019,08,09,17,15,21.20
2019,08,09,17,16,21.20
2019,08,09,17,17,21.10
2019,08,09,17,18,21.10
2019,08,09,17,19,21.10